SWAS (25560 NORAD) Tracking and Keplerian Element Data

This shows tracking and keplerian element data for the satellite.

Feedback or suggestion? Click here.




ElementValue
Catalog25560
NameSWAS
Epoch Orbit9233
Epoch Day20.91728486
Epoch Year2019
RAAN235.5292
Inclination69.8974
Eccentricity0.0006727
Argument of Perigee9.5311
Mean Anonmoly350.5971
Mean Motion14.93686183
Decay Rate7E-07
L11 25560U 98071A 19020.91728486 .00000070 00000-0 15207-4 0 9996
L22 25560 69.8974 235.5292 0006727 9.5311 350.5971 14.93686183 92338

Live tracking and technical data element details for SWAS (NORAD 25560). SWAS can be tracked NOW for your location showing map with azimuth and elevation plus other details from your city location.

Track the satellite on the map from your city or location and see movement details for azimuth, elevation, latitude, longitude, range, height, and movement on the map or in text.







IsCatalogInMostPopularTable: catalog: 25560, numindb: 69
Update: records affected: 1



GetName: 25560 SWAS

Hit Count: updated at: Mon, 21 Jan 2019 18:39:55 GMT